Time,TemperatureF,DewpointF,PressureIn,WindDirection,WindDirectionDegrees,WindSpeedMPH,WindSpeedGustMPH,Humidity,HourlyPrecipIn,Conditions,Clouds,dailyrainin,SoftwareType,DateUTC
2013-05-27 00:03:00,54.0,25.5,29.56,NNW,329,0.0,2.0,33,0.00,,,0.00,WeatherTracker,2013-05-27 07:03:00,
2013-05-27 00:08:00,54.3,25.1,29.56,NNW,329,4.0,4.0,32,0.00,,,0.00,WeatherTracker,2013-05-27 07:08:00,
2013-05-27 00:13:00,54.7,24.6,29.56,NNW,329,3.0,4.0,31,0.00,,,0.00,WeatherTracker,2013-05-27 07:13:00,
2013-05-27 00:18:00,54.9,24.8,29.56,NW,304,0.0,0.0,31,0.00,,,0.00,WeatherTracker,2013-05-27 07:18:00,
2013-05-27 00:23:00,54.7,24.6,29.56,NW,306,4.0,7.0,31,0.00,,,0.00,WeatherTracker,2013-05-27 07:23:00,
2013-05-27 00:28:00,54.9,24.8,29.56,NW,319,6.0,6.0,31,0.00,,,0.00,WeatherTracker,2013-05-27 07:28:00,
2013-05-27 00:33:00,55.0,25.0,29.56,NNW,331,4.0,5.0,31,0.00,,,0.00,WeatherTracker,2013-05-27 07:33:00,
2013-05-27 00:38:00,55.0,25.0,29.56,NNW,327,0.0,0.0,31,0.00,,,0.00,WeatherTracker,2013-05-27 07:38:00,
2013-05-27 00:43:00,54.9,24.8,29.56,NNW,327,0.0,0.0,31,0.00,,,0.00,WeatherTracker,2013-05-27 07:43:00,
2013-05-27 00:48:00,54.5,24.5,29.56,NNW,327,0.0,0.0,31,0.00,,,0.00,WeatherTracker,2013-05-27 07:48:00,
2013-05-27 00:53:00,54.3,25.1,29.56,NW,319,0.0,3.0,32,0.00,,,0.00,WeatherTracker,2013-05-27 07:53:00,
2013-05-27 00:58:00,54.1,24.2,29.56,North,9,3.0,5.0,31,0.00,,,0.00,WeatherTracker,2013-05-27 07:58:00,
2013-05-27 01:03:00,54.3,25.1,29.56,NW,318,2.0,3.0,32,0.00,,,0.00,WeatherTracker,2013-05-27 08:03:00,
2013-05-27 01:08:00,53.6,25.2,29.56,NW,304,3.0,3.0,33,0.00,,,0.00,WeatherTracker,2013-05-27 08:08:00,
2013-05-27 01:13:00,53.1,26.1,29.56,NNE,28,4.0,4.0,35,0.00,,,0.00,WeatherTracker,2013-05-27 08:13:00,
2013-05-27 01:18:00,52.7,26.5,29.56,NNW,334,3.0,4.0,36,0.00,,,0.00,WeatherTracker,2013-05-27 08:18:00,
2013-05-27 01:23:00,52.5,25.7,29.56,NW,307,3.0,5.0,35,0.00,,,0.00,WeatherTracker,2013-05-27 08:23:00,
2013-05-27 01:28:00,52.5,26.3,29.56,NW,314,2.0,3.0,36,0.00,,,0.00,WeatherTracker,2013-05-27 08:28:00,
2013-05-27 01:33:00,52.5,26.3,29.56,NW,326,3.0,3.0,36,0.00,,,0.00,WeatherTracker,2013-05-27 08:33:00,
2013-05-27 01:38:00,52.3,26.2,29.56,WNW,302,4.0,4.0,36,0.00,,,0.00,WeatherTracker,2013-05-27 08:38:00,
2013-05-27 01:43:00,52.3,26.2,29.56,NW,304,2.0,4.0,36,0.00,,,0.00,WeatherTracker,2013-05-27 08:43:00,
2013-05-27 01:48:00,52.5,25.7,29.56,WNW,301,4.0,4.0,35,0.00,,,0.00,WeatherTracker,2013-05-27 08:48:00,
2013-05-27 01:53:00,52.9,25.3,29.56,West,268,3.0,0.0,34,0.00,,,0.00,WeatherTracker,2013-05-27 08:53:00,
2013-05-27 01:58:00,52.9,25.3,29.56,ENE,68,0.0,3.0,34,0.00,,,0.00,WeatherTracker,2013-05-27 08:58:00,
2013-05-27 02:03:00,52.7,25.1,29.56,NNW,328,0.0,3.0,34,0.00,,,0.00,WeatherTracker,2013-05-27 09:03:00,
2013-05-27 02:08:00,52.5,25.0,29.56,NW,307,4.0,6.0,34,0.00,,,0.00,WeatherTracker,2013-05-27 09:08:00,
2013-05-27 02:13:00,53.1,24.7,29.56,NNW,336,0.0,4.0,33,0.00,,,0.00,WeatherTracker,2013-05-27 09:13:00,
2013-05-27 02:18:00,53.1,24.7,29.56,North,349,3.0,3.0,33,0.00,,,0.00,WeatherTracker,2013-05-27 09:18:00,
2013-05-27 02:23:00,53.4,24.3,29.56,NNW,333,2.0,2.0,32,0.00,,,0.00,WeatherTracker,2013-05-27 09:23:00,
2013-05-27 02:28:00,53.4,23.6,29.56,NW,306,0.0,0.0,31,0.00,,,0.00,WeatherTracker,2013-05-27 09:28:00,
2013-05-27 02:33:00,52.9,24.6,29.56,East,83,0.0,0.0,33,0.00,,,0.00,WeatherTracker,2013-05-27 09:33:00,
2013-05-27 02:38:00,53.1,22.5,29.56,SW,223,0.0,3.0,30,0.00,,,0.00,WeatherTracker,2013-05-27 09:38:00,
2013-05-27 02:43:00,53.2,21.8,29.56,NE,42,2.0,4.0,29,0.00,,,0.00,WeatherTracker,2013-05-27 09:43:00,
2013-05-27 02:48:00,53.1,22.5,29.56,ENE,72,0.0,3.0,30,0.00,,,0.00,WeatherTracker,2013-05-27 09:48:00,
2013-05-27 02:53:00,52.5,22.8,29.56,NW,306,0.0,2.0,31,0.00,,,0.00,WeatherTracker,2013-05-27 09:53:00,
2013-05-27 02:58:00,52.5,21.2,29.56,NW,323,0.0,0.0,29,0.00,,,0.00,WeatherTracker,2013-05-27 09:58:00,
2013-05-27 03:03:00,52.5,22.8,29.56,East,99,0.0,0.0,31,0.00,,,0.00,WeatherTracker,2013-05-27 10:03:00,
2013-05-27 03:08:00,52.3,22.6,29.56,SE,130,0.0,3.0,31,0.00,,,0.00,WeatherTracker,2013-05-27 10:08:00,
2013-05-27 03:13:00,52.2,22.5,29.56,NNE,29,3.0,3.0,31,0.00,,,0.00,WeatherTracker,2013-05-27 10:13:00,
2013-05-27 03:18:00,52.2,22.5,29.56,North,0,3.0,0.0,31,0.00,,,0.00,WeatherTracker,2013-05-27 10:18:00,
2013-05-27 03:23:00,51.8,22.1,29.56,NNW,344,2.0,0.0,31,0.00,,,0.00,WeatherTracker,2013-05-27 10:23:00,
2013-05-27 03:28:00,51.6,24.2,29.56,North,357,0.0,0.0,34,0.00,,,0.00,WeatherTracker,2013-05-27 10:28:00,
2013-05-27 03:33:00,51.4,24.7,29.56,North,1,0.0,0.0,35,0.00,,,0.00,WeatherTracker,2013-05-27 10:33:00,
2013-05-27 03:38:00,51.3,25.2,29.56,North,353,0.0,0.0,36,0.00,,,0.00,WeatherTracker,2013-05-27 10:38:00,
2013-05-27 03:43:00,50.9,24.9,29.56,NW,325,0.0,0.0,36,0.00,,,0.00,WeatherTracker,2013-05-27 10:43:00,
2013-05-27 03:48:00,50.7,24.7,29.56,NNW,330,2.0,2.0,36,0.00,,,0.00,WeatherTracker,2013-05-27 10:48:00,
2013-05-27 03:53:00,50.7,24.7,29.56,NW,319,3.0,3.0,36,0.00,,,0.00,WeatherTracker,2013-05-27 10:53:00,
2013-05-27 03:58:00,50.7,24.7,29.56,NW,324,0.0,3.0,36,0.00,,,0.00,WeatherTracker,2013-05-27 10:58:00,
2013-05-27 04:03:00,50.7,24.7,29.56,NW,316,0.0,2.0,36,0.00,,,0.00,WeatherTracker,2013-05-27 11:03:00,
2013-05-27 04:08:00,50.5,24.6,29.56,NW,316,2.0,0.0,36,0.00,,,0.00,WeatherTracker,2013-05-27 11:08:00,
2013-05-27 04:13:00,50.5,24.6,29.56,NW,316,0.0,0.0,36,0.00,,,0.00,WeatherTracker,2013-05-27 11:13:00,
2013-05-27 04:18:00,50.5,24.6,29.56,NW,316,0.0,0.0,36,0.00,,,0.00,WeatherTracker,2013-05-27 11:18:00,
2013-05-27 04:23:00,50.7,24.1,29.56,NW,317,2.0,0.0,35,0.00,,,0.00,WeatherTracker,2013-05-27 11:23:00,
2013-05-27 04:28:00,51.1,23.0,29.56,SSE,161,0.0,0.0,33,0.00,,,0.00,WeatherTracker,2013-05-27 11:28:00,
2013-05-27 04:33:00,51.1,24.4,29.56,WSW,240,0.0,0.0,35,0.00,,,0.00,WeatherTracker,2013-05-27 11:33:00,
2013-05-27 04:38:00,51.3,23.1,29.56,NW,305,2.0,5.0,33,0.00,,,0.00,WeatherTracker,2013-05-27 11:38:00,
2013-05-27 04:43:00,51.8,22.9,29.56,North,0,0.0,0.0,32,0.00,,,0.00,WeatherTracker,2013-05-27 11:43:00,
2013-05-27 04:48:00,52.0,22.3,29.56,NNW,330,0.0,0.0,31,0.00,,,0.00,WeatherTracker,2013-05-27 11:48:00,
2013-05-27 04:53:00,52.0,23.0,29.56,ENE,57,0.0,3.0,32,0.00,,,0.00,WeatherTracker,2013-05-27 11:53:00,
2013-05-27 04:58:00,52.0,20.7,29.56,North,4,4.0,4.0,29,0.00,,,0.00,WeatherTracker,2013-05-27 11:58:00,
2013-05-27 05:03:00,52.9,21.5,29.56,NE,35,3.0,0.0,29,0.00,,,0.00,WeatherTracker,2013-05-27 12:03:00,
2013-05-27 05:08:00,52.9,21.5,29.56,WNW,283,0.0,3.0,29,0.00,,,0.00,WeatherTracker,2013-05-27 12:08:00,
2013-05-27 05:13:00,53.1,21.7,29.56,NNE,12,5.0,5.0,29,0.00,,,0.00,WeatherTracker,2013-05-27 12:13:00,
2013-05-27 05:18:00,54.3,21.1,29.56,NW,312,4.0,4.0,27,0.00,,,0.00,WeatherTracker,2013-05-27 12:18:00,
2013-05-27 05:23:00,55.4,21.1,29.56,NNW,332,4.0,4.0,26,0.00,,,0.00,WeatherTracker,2013-05-27 12:23:00,
2013-05-27 05:28:00,55.8,20.5,29.56,NW,312,5.0,5.0,25,0.00,,,0.00,WeatherTracker,2013-05-27 12:28:00,
2013-05-27 05:33:00,56.3,20.9,29.56,WNW,301,6.0,6.0,25,0.00,,,0.00,WeatherTracker,2013-05-27 12:33:00,
2013-05-27 05:38:00,56.5,21.1,29.56,WNW,298,4.0,4.0,25,0.00,,,0.00,WeatherTracker,2013-05-27 12:38:00,
2013-05-27 05:43:00,56.5,21.1,29.56,WNW,298,5.0,8.0,25,0.00,,,0.00,WeatherTracker,2013-05-27 12:43:00,
2013-05-27 05:48:00,56.5,21.1,29.56,North,353,5.0,6.0,25,0.00,,,0.00,WeatherTracker,2013-05-27 12:48:00,
2013-05-27 05:53:00,56.5,21.1,29.56,WNW,294,4.0,8.0,25,0.00,,,0.00,WeatherTracker,2013-05-27 12:53:00,
2013-05-27 05:58:00,55.9,20.6,29.56,NW,310,4.0,6.0,25,0.00,,,0.00,WeatherTracker,2013-05-27 12:58:00,
2013-05-27 06:03:00,55.4,21.1,29.56,North,353,6.0,6.0,26,0.00,,,0.00,WeatherTracker,2013-05-27 13:03:00,
2013-05-27 06:08:00,55.4,21.1,29.56,NW,313,5.0,5.0,26,0.00,,,0.00,WeatherTracker,2013-05-27 13:08:00,
2013-05-27 06:13:00,55.0,20.8,29.56,NNW,331,5.0,6.0,26,0.00,,,0.00,WeatherTracker,2013-05-27 13:13:00,
2013-05-27 06:18:00,54.5,20.3,29.56,NW,316,6.0,6.0,26,0.00,,,0.00,WeatherTracker,2013-05-27 13:18:00,
2013-05-27 06:23:00,54.3,21.1,29.56,WNW,294,6.0,6.0,27,0.00,,,0.00,WeatherTracker,2013-05-27 13:23:00,
2013-05-27 06:28:00,54.0,21.6,29.56,NW,307,6.0,6.0,28,0.00,,,0.00,WeatherTracker,2013-05-27 13:28:00,
2013-05-27 06:33:00,53.6,22.9,29.56,NW,312,7.0,7.0,30,0.00,,,0.00,WeatherTracker,2013-05-27 13:33:00,
2013-05-27 06:38:00,53.4,25.0,29.56,NW,305,7.0,7.0,33,0.00,,,0.00,WeatherTracker,2013-05-27 13:38:00,
2013-05-27 06:43:00,53.6,25.2,29.56,NW,324,5.0,8.0,33,0.00,,,0.00,WeatherTracker,2013-05-27 13:43:00,
2013-05-27 06:48:00,54.1,27.1,29.56,NW,313,6.0,6.0,35,0.00,,,0.00,WeatherTracker,2013-05-27 13:48:00,
2013-05-27 06:53:00,54.5,27.4,29.56,NNW,327,6.0,6.0,35,0.00,,,0.00,WeatherTracker,2013-05-27 13:53:00,
2013-05-27 06:58:00,54.9,27.7,29.56,WNW,302,5.0,6.0,35,0.00,,,0.00,WeatherTracker,2013-05-27 13:58:00,
2013-05-27 07:03:00,55.2,28.7,29.56,NW,304,6.0,6.0,36,0.00,,,0.00,WeatherTracker,2013-05-27 14:03:00,
2013-05-27 07:08:00,55.8,29.2,29.56,NW,325,6.0,8.0,36,0.00,,,0.00,WeatherTracker,2013-05-27 14:08:00,
2013-05-27 07:13:00,55.9,29.4,29.56,WNW,287,6.0,6.0,36,0.00,,,0.00,WeatherTracker,2013-05-27 14:13:00,
2013-05-27 07:18:00,55.9,29.4,29.56,NW,306,6.0,6.0,36,0.00,,,0.00,WeatherTracker,2013-05-27 14:18:00,
2013-05-27 07:23:00,55.8,29.9,29.56,NW,308,5.0,8.0,37,0.00,,,0.00,WeatherTracker,2013-05-27 14:23:00,
2013-05-27 07:28:00,55.4,30.2,29.56,WNW,302,4.0,6.0,38,0.00,,,0.00,WeatherTracker,2013-05-27 14:28:00,
2013-05-27 07:33:00,55.2,30.7,29.56,NW,317,6.0,6.0,39,0.00,,,0.00,WeatherTracker,2013-05-27 14:33:00,
2013-05-27 07:38:00,55.4,30.9,29.56,NNW,335,4.0,6.0,39,0.00,,,0.00,WeatherTracker,2013-05-27 14:38:00,
2013-05-27 07:43:00,55.2,30.7,29.56,NW,325,5.0,5.0,39,0.00,,,0.00,WeatherTracker,2013-05-27 14:43:00,
2013-05-27 07:48:00,55.2,31.3,29.56,NNW,328,4.0,5.0,40,0.00,,,0.00,WeatherTracker,2013-05-27 14:48:00,
2013-05-27 07:53:00,55.2,31.3,29.56,NNW,333,4.0,6.0,40,0.00,,,0.00,WeatherTracker,2013-05-27 14:53:00,
2013-05-27 07:58:00,55.2,31.3,29.56,NNW,331,5.0,5.0,40,0.00,,,0.00,WeatherTracker,2013-05-27 14:58:00,
2013-05-27 08:03:00,55.4,31.5,29.56,WNW,303,4.0,5.0,40,0.00,,,0.00,WeatherTracker,2013-05-27 15:03:00,
2013-05-27 08:08:00,55.4,31.5,29.56,NW,305,4.0,4.0,40,0.00,,,0.00,WeatherTracker,2013-05-27 15:08:00,
2013-05-27 08:13:00,55.2,31.9,29.56,North,353,6.0,6.0,41,0.00,,,0.00,WeatherTracker,2013-05-27 15:13:00,
2013-05-27 08:18:00,55.2,31.9,29.56,NW,315,5.0,6.0,41,0.00,,,0.00,WeatherTracker,2013-05-27 15:18:00,
2013-05-27 08:23:00,55.0,32.4,29.56,NW,323,4.0,5.0,42,0.00,,,0.00,WeatherTracker,2013-05-27 15:23:00,
2013-05-27 08:28:00,55.0,32.4,29.56,NNW,335,4.0,4.0,42,0.00,,,0.00,WeatherTracker,2013-05-27 15:28:00,
2013-05-27 08:33:00,55.0,32.4,29.56,NW,321,4.0,5.0,42,0.00,,,0.00,WeatherTracker,2013-05-27 15:33:00,
2013-05-27 08:38:00,55.0,32.4,29.56,NNW,337,4.0,5.0,42,0.00,,,0.00,WeatherTracker,2013-05-27 15:38:00,
2013-05-27 08:43:00,55.0,32.4,29.56,NW,317,4.0,6.0,42,0.00,,,0.00,WeatherTracker,2013-05-27 15:43:00,
2013-05-27 08:48:00,54.9,33.8,29.56,NW,310,5.0,6.0,43,0.00,,,0.00,WeatherTracker,2013-05-27 15:48:00,
2013-05-27 08:53:00,54.9,33.8,29.56,NNW,332,7.0,7.0,43,0.00,,,0.00,WeatherTracker,2013-05-27 15:53:00,
2013-05-27 08:58:00,54.7,33.8,29.56,WNW,295,5.0,5.0,43,0.00,,,0.00,WeatherTracker,2013-05-27 15:58:00,
2013-05-27 09:03:00,54.5,33.8,29.56,NW,321,6.0,6.0,43,0.00,,,0.00,WeatherTracker,2013-05-27 16:03:00,
2013-05-27 09:08:00,54.5,33.8,29.56,NW,319,6.0,6.0,43,0.00,,,0.00,WeatherTracker,2013-05-27 16:08:00,
2013-05-27 09:13:00,54.3,32.9,29.56,NW,318,5.0,5.0,44,0.00,,,0.00,WeatherTracker,2013-05-27 16:13:00,
2013-05-27 09:18:00,54.3,32.9,29.56,WNW,298,5.0,5.0,44,0.00,,,0.00,WeatherTracker,2013-05-27 16:18:00,
2013-05-27 09:23:00,54.3,32.9,29.56,NW,323,6.0,6.0,44,0.00,,,0.00,WeatherTracker,2013-05-27 16:23:00,
2013-05-27 09:28:00,54.3,33.4,29.56,NW,319,7.0,7.0,45,0.00,,,0.00,WeatherTracker,2013-05-27 16:28:00,
2013-05-27 09:33:00,54.5,33.8,29.56,WNW,301,6.0,6.0,45,0.00,,,0.00,WeatherTracker,2013-05-27 16:33:00,
2013-05-27 09:38:00,54.5,33.8,29.56,NW,322,7.0,7.0,44,0.00,,,0.00,WeatherTracker,2013-05-27 16:38:00,
2013-05-27 09:43:00,54.7,33.8,29.56,NW,312,4.0,4.0,44,0.00,,,0.00,WeatherTracker,2013-05-27 16:43:00,
2013-05-27 09:48:00,54.9,33.8,29.56,WNW,296,5.0,6.0,44,0.00,,,0.00,WeatherTracker,2013-05-27 16:48:00,
2013-05-27 09:53:00,55.2,33.8,29.56,WNW,302,4.0,4.0,43,0.00,,,0.00,WeatherTracker,2013-05-27 16:53:00,
2013-05-27 09:58:00,55.6,32.9,29.56,NW,307,4.0,4.0,42,0.00,,,0.00,WeatherTracker,2013-05-27 16:58:00,
2013-05-27 10:03:00,55.9,32.6,29.56,WNW,301,4.0,4.0,41,0.00,,,0.00,WeatherTracker,2013-05-27 17:03:00,
2013-05-27 10:08:00,56.1,32.7,29.56,NW,307,3.0,3.0,41,0.00,,,0.00,WeatherTracker,2013-05-27 17:08:00,
2013-05-27 10:13:00,56.3,33.8,29.56,NW,317,0.0,0.0,42,0.00,,,0.00,WeatherTracker,2013-05-27 17:13:00,
2013-05-27 10:18:00,56.3,33.8,29.56,NW,317,0.0,0.0,41,0.00,,,0.00,WeatherTracker,2013-05-27 17:18:00,
2013-05-27 10:23:00,56.5,33.8,29.56,NW,317,0.0,0.0,41,0.00,,,0.00,WeatherTracker,2013-05-27 17:23:00,
2013-05-27 10:28:00,56.7,33.8,29.56,NW,317,0.0,0.0,41,0.00,,,0.00,WeatherTracker,2013-05-27 17:28:00,
2013-05-27 10:33:00,57.0,33.8,29.56,ESE,105,3.0,3.0,41,0.00,,,0.00,WeatherTracker,2013-05-27 17:33:00,
2013-05-27 10:38:00,57.4,32.6,29.56,NNW,341,0.0,0.0,39,0.00,,,0.00,WeatherTracker,2013-05-27 17:38:00,
2013-05-27 10:43:00,57.9,32.5,29.56,East,84,2.0,2.0,38,0.00,,,0.00,WeatherTracker,2013-05-27 17:43:00,
2013-05-27 10:48:00,58.5,32.3,29.56,NNW,342,0.0,0.0,37,0.00,,,0.00,WeatherTracker,2013-05-27 17:48:00,
2013-05-27 10:53:00,59.0,32.8,29.56,NW,307,3.0,5.0,37,0.00,,,0.00,WeatherTracker,2013-05-27 17:53:00,
2013-05-27 10:58:00,59.0,32.1,29.56,NW,323,2.0,0.0,36,0.00,,,0.00,WeatherTracker,2013-05-27 17:58:00,
2013-05-27 11:03:00,58.8,32.6,29.56,NW,304,3.0,3.0,37,0.00,,,0.00,WeatherTracker,2013-05-27 18:03:00,
2013-05-27 11:08:00,58.5,32.3,29.56,West,274,3.0,3.0,37,0.00,,,0.00,WeatherTracker,2013-05-27 18:08:00,
2013-05-27 11:13:00,58.3,32.1,29.56,NW,308,3.0,3.0,37,0.00,,,0.00,WeatherTracker,2013-05-27 18:13:00,
2013-05-27 11:18:00,58.1,33.8,29.56,NW,313,0.0,0.0,38,0.00,,,0.00,WeatherTracker,2013-05-27 18:18:00,
2013-05-27 11:24:00,58.1,33.8,29.56,NW,313,0.0,4.0,38,0.00,,,0.00,WeatherTracker,2013-05-27 18:24:00,
2013-05-27 11:29:00,58.1,33.8,29.56,West,265,0.0,3.0,38,0.00,,,0.00,WeatherTracker,2013-05-27 18:29:00,
2013-05-27 11:34:00,58.1,33.8,29.56,NW,307,0.0,0.0,38,0.00,,,0.00,WeatherTracker,2013-05-27 18:34:00,
2013-05-27 11:39:00,57.9,33.1,29.56,NW,307,0.0,0.0,39,0.00,,,0.00,WeatherTracker,2013-05-27 18:39:00,
2013-05-27 11:44:00,57.9,33.1,29.56,NW,307,0.0,0.0,39,0.00,,,0.00,WeatherTracker,2013-05-27 18:44:00,
2013-05-27 11:49:00,57.4,33.8,29.56,NW,315,3.0,3.0,42,0.00,,,0.00,WeatherTracker,2013-05-27 18:49:00,
2013-05-27 11:54:00,57.2,35.6,29.56,NW,324,0.0,3.0,44,0.00,,,0.00,WeatherTracker,2013-05-27 18:54:00,
2013-05-27 11:59:00,57.0,35.6,29.56,NW,324,3.0,3.0,45,0.00,,,0.00,WeatherTracker,2013-05-27 18:59:00,
2013-05-27 12:04:00,56.8,35.6,29.56,NW,324,0.0,0.0,45,0.00,,,0.00,WeatherTracker,2013-05-27 19:04:00,
2013-05-27 12:09:00,56.8,37.4,29.56,NW,324,0.0,0.0,47,0.00,,,0.00,WeatherTracker,2013-05-27 19:09:00,
2013-05-27 12:14:00,56.5,37.4,29.56,NW,324,0.0,0.0,46,0.00,,,0.00,WeatherTracker,2013-05-27 19:14:00,
2013-05-27 12:19:00,56.5,37.4,29.56,NW,324,0.0,0.0,47,0.00,,,0.00,WeatherTracker,2013-05-27 19:19:00,
2013-05-27 12:24:00,56.7,39.2,29.56,WNW,303,0.0,0.0,51,0.00,,,0.00,WeatherTracker,2013-05-27 19:24:00,
2013-05-27 12:29:00,56.7,41.0,29.56,WNW,303,0.0,0.0,53,0.00,,,0.00,WeatherTracker,2013-05-27 19:29:00,
2013-05-27 12:34:00,56.7,39.2,29.56,WNW,303,0.0,0.0,51,0.00,,,0.00,WeatherTracker,2013-05-27 19:34:00,
2013-05-27 12:39:00,56.7,39.2,29.56,NE,56,0.0,0.0,51,0.00,,,0.00,WeatherTracker,2013-05-27 19:39:00,
2013-05-27 12:44:00,56.7,37.4,29.56,North,1,0.0,2.0,48,0.00,,,0.00,WeatherTracker,2013-05-27 19:44:00,
2013-05-27 12:49:00,57.2,37.4,29.56,North,1,0.0,0.0,49,0.00,,,0.00,WeatherTracker,2013-05-27 19:49:00,
2013-05-27 12:54:00,57.6,37.4,29.56,North,1,0.0,0.0,46,0.00,,,0.00,WeatherTracker,2013-05-27 19:54:00,
2013-05-27 12:59:00,57.7,37.4,29.56,NW,318,0.0,0.0,46,0.00,,,0.00,WeatherTracker,2013-05-27 19:59:00,
2013-05-27 13:04:00,57.6,35.6,29.56,NNW,327,0.0,0.0,44,0.00,,,0.00,WeatherTracker,2013-05-27 20:04:00,
2013-05-27 13:09:00,57.6,35.6,29.56,North,0,0.0,0.0,45,0.00,,,0.00,WeatherTracker,2013-05-27 20:09:00,
2013-05-27 13:14:00,57.7,37.4,29.56,ESE,115,0.0,0.0,46,0.00,,,0.00,WeatherTracker,2013-05-27 20:14:00,
2013-05-27 13:19:00,57.9,37.4,29.56,NNW,331,0.0,3.0,46,0.00,,,0.00,WeatherTracker,2013-05-27 20:19:00,
2013-05-27 13:24:00,57.9,35.6,29.56,ENE,71,2.0,3.0,45,0.00,,,0.00,WeatherTracker,2013-05-27 20:24:00,
2013-05-27 13:29:00,57.7,35.6,29.56,ESE,102,0.0,3.0,43,0.00,,,0.00,WeatherTracker,2013-05-27 20:29:00,
2013-05-27 13:34:00,57.7,37.4,29.56,North,3,0.0,0.0,46,0.00,,,0.00,WeatherTracker,2013-05-27 20:34:00,
2013-05-27 13:39:00,57.9,35.6,29.56,East,94,2.0,0.0,45,0.00,,,0.00,WeatherTracker,2013-05-27 20:39:00,
2013-05-27 13:44:00,57.7,37.4,29.56,NW,313,0.0,0.0,46,0.00,,,0.00,WeatherTracker,2013-05-27 20:44:00,
2013-05-27 13:49:00,57.7,37.4,29.56,NW,313,0.0,0.0,46,0.00,,,0.00,WeatherTracker,2013-05-27 20:49:00,
2013-05-27 13:54:00,57.7,35.6,29.56,NW,313,0.0,0.0,45,0.00,,,0.00,WeatherTracker,2013-05-27 20:54:00,
2013-05-27 13:59:00,57.6,37.4,29.56,NW,313,0.0,0.0,46,0.00,,,0.00,WeatherTracker,2013-05-27 20:59:00,
2013-05-27 14:04:00,57.4,35.6,29.56,ESE,102,2.0,2.0,45,0.00,,,0.00,WeatherTracker,2013-05-27 21:04:00,
2013-05-27 14:09:00,57.2,37.4,29.56,East,89,0.0,0.0,46,0.00,,,0.00,WeatherTracker,2013-05-27 21:09:00,
2013-05-27 14:14:00,57.2,37.4,29.56,SW,225,0.0,3.0,48,0.00,,,0.00,WeatherTracker,2013-05-27 21:14:00,
2013-05-27 14:19:00,57.0,37.4,29.56,ENE,74,0.0,0.0,49,0.00,,,0.00,WeatherTracker,2013-05-27 21:19:00,
2013-05-27 14:24:00,56.8,39.2,29.56,ESE,112,0.0,0.0,50,0.00,,,0.00,WeatherTracker,2013-05-27 21:24:00,
2013-05-27 14:29:00,56.8,39.2,29.56,East,82,0.0,3.0,50,0.00,,,0.00,WeatherTracker,2013-05-27 21:29:00,
2013-05-27 14:34:00,56.7,39.2,29.56,ENE,74,0.0,0.0,51,0.00,,,0.00,WeatherTracker,2013-05-27 21:34:00,
2013-05-27 14:39:00,56.5,39.2,29.56,ESE,107,3.0,0.0,50,0.00,,,0.00,WeatherTracker,2013-05-27 21:39:00,
2013-05-27 14:44:00,56.5,37.4,29.56,SSW,207,0.0,4.0,49,0.00,,,0.00,WeatherTracker,2013-05-27 21:44:00,
2013-05-27 14:49:00,56.7,37.4,29.56,SSW,197,0.0,0.0,49,0.00,,,0.00,WeatherTracker,2013-05-27 21:49:00,
2013-05-27 14:54:00,56.8,37.4,29.56,SSE,164,3.0,0.0,48,0.00,,,0.00,WeatherTracker,2013-05-27 21:54:00,
2013-05-27 14:59:00,57.4,37.4,29.56,SSE,164,0.0,0.0,48,0.00,,,0.00,WeatherTracker,2013-05-27 21:59:00,
2013-05-27 15:04:00,57.7,37.4,29.56,WSW,252,0.0,3.0,46,0.00,,,0.00,WeatherTracker,2013-05-27 22:04:00,
2013-05-27 15:09:00,57.9,33.8,29.56,SSE,150,3.0,3.0,41,0.00,,,0.00,WeatherTracker,2013-05-27 22:09:00,
2013-05-27 15:14:00,58.1,37.4,29.56,NW,306,0.0,0.0,43,0.00,,,0.00,WeatherTracker,2013-05-27 22:14:00,
2013-05-27 15:19:00,58.1,35.6,29.56,South,181,0.0,4.0,42,0.00,,,0.00,WeatherTracker,2013-05-27 22:19:00,
2013-05-27 15:24:00,57.9,35.6,29.56,ESE,116,2.0,3.0,43,0.00,,,0.00,WeatherTracker,2013-05-27 22:24:00,
2013-05-27 15:29:00,58.1,37.4,29.56,South,186,0.0,0.0,44,0.00,,,0.00,WeatherTracker,2013-05-27 22:29:00,
2013-05-27 15:34:00,58.3,37.4,29.56,NE,52,0.0,0.0,43,0.00,,,0.00,WeatherTracker,2013-05-27 22:34:00,
2013-05-27 15:39:00,58.5,37.4,29.56,SE,130,3.0,3.0,43,0.00,,,0.00,WeatherTracker,2013-05-27 22:39:00,
2013-05-27 15:44:00,58.5,35.6,29.56,SE,125,0.0,0.0,42,0.00,,,0.00,WeatherTracker,2013-05-27 22:44:00,
2013-05-27 15:49:00,58.1,35.6,29.56,East,90,2.0,4.0,41,0.00,,,0.00,WeatherTracker,2013-05-27 22:49:00,
2013-05-27 15:54:00,57.9,33.8,29.56,SSE,150,4.0,5.0,41,0.00,,,0.00,WeatherTracker,2013-05-27 22:54:00,
2013-05-27 15:59:00,58.1,35.6,29.56,ESE,116,0.0,4.0,42,0.00,,,0.00,WeatherTracker,2013-05-27 22:59:00,
2013-05-27 16:04:00,58.1,35.6,29.56,NE,46,4.0,4.0,42,0.00,,,0.00,WeatherTracker,2013-05-27 23:04:00,
2013-05-27 16:09:00,58.3,35.6,29.56,SSE,159,4.0,4.0,41,0.00,,,0.00,WeatherTracker,2013-05-27 23:09:00,
2013-05-27 16:14:00,58.3,35.6,29.56,NW,304,0.0,0.0,42,0.00,,,0.00,WeatherTracker,2013-05-27 23:14:00,
2013-05-27 16:19:00,58.3,35.6,29.56,West,261,3.0,4.0,42,0.00,,,0.00,WeatherTracker,2013-05-27 23:19:00,
2013-05-27 16:24:00,58.1,35.6,29.56,South,171,3.0,0.0,41,0.00,,,0.00,WeatherTracker,2013-05-27 23:24:00,
2013-05-27 16:29:00,57.9,33.8,29.56,West,265,4.0,4.0,41,0.00,,,0.00,WeatherTracker,2013-05-27 23:29:00,
2013-05-27 16:34:00,58.1,35.6,29.56,South,180,2.0,0.0,42,0.00,,,0.00,WeatherTracker,2013-05-27 23:34:00,
2013-05-27 16:39:00,58.6,35.6,29.56,South,179,0.0,3.0,42,0.00,,,0.00,WeatherTracker,2013-05-27 23:39:00,
2013-05-27 16:44:00,58.5,35.6,29.56,North,357,0.0,0.0,41,0.00,,,0.00,WeatherTracker,2013-05-27 23:44:00,
2013-05-27 16:49:00,58.1,35.6,29.56,NW,304,4.0,4.0,41,0.00,,,0.00,WeatherTracker,2013-05-27 23:49:00,
2013-05-27 16:54:00,57.7,33.8,29.56,NNW,335,0.0,0.0,42,0.00,,,0.00,WeatherTracker,2013-05-27 23:54:00,
2013-05-27 16:59:00,57.4,35.6,29.56,NNW,341,0.0,0.0,43,0.00,,,0.00,WeatherTracker,2013-05-27 23:59:00,
2013-05-27 17:04:00,57.6,35.6,29.56,East,89,0.0,4.0,44,0.00,,,0.00,WeatherTracker,2013-05-28 00:04:00,
2013-05-27 17:09:00,57.6,35.6,29.56,ENE,77,0.0,0.0,44,0.00,,,0.00,WeatherTracker,2013-05-28 00:09:00,
2013-05-27 17:14:00,57.7,35.6,29.56,NNE,16,0.0,0.0,43,0.00,,,0.00,WeatherTracker,2013-05-28 00:14:00,
2013-05-27 17:19:00,57.9,35.6,29.56,North,353,0.0,3.0,43,0.00,,,0.00,WeatherTracker,2013-05-28 00:19:00,
2013-05-27 17:24:00,57.9,35.6,29.56,NE,36,0.0,3.0,43,0.00,,,0.00,WeatherTracker,2013-05-28 00:24:00,
2013-05-27 17:29:00,57.6,35.6,29.56,NW,310,0.0,3.0,43,0.00,,,0.00,WeatherTracker,2013-05-28 00:29:00,
2013-05-27 17:34:00,57.4,35.6,29.56,ENE,67,0.0,0.0,44,0.00,,,0.00,WeatherTracker,2013-05-28 00:34:00,
2013-05-27 17:39:00,57.2,35.6,29.56,NNW,345,0.0,0.0,44,0.00,,,0.00,WeatherTracker,2013-05-28 00:39:00,
2013-05-27 17:44:00,57.2,35.6,29.56,North,357,0.0,0.0,45,0.00,,,0.00,WeatherTracker,2013-05-28 00:44:00,
2013-05-27 17:49:00,57.2,35.6,29.56,North,357,0.0,0.0,45,0.00,,,0.00,WeatherTracker,2013-05-28 00:49:00,
2013-05-27 17:54:00,57.2,35.6,29.56,North,357,0.0,0.0,45,0.00,,,0.00,WeatherTracker,2013-05-28 00:54:00,
2013-05-27 17:59:00,57.2,35.6,29.56,North,357,0.0,0.0,45,0.00,,,0.00,WeatherTracker,2013-05-28 00:59:00,
2013-05-27 18:04:00,57.0,35.6,29.56,North,357,0.0,0.0,45,0.00,,,0.00,WeatherTracker,2013-05-28 01:04:00,
2013-05-27 18:09:00,57.0,35.6,29.56,North,357,0.0,0.0,45,0.00,,,0.00,WeatherTracker,2013-05-28 01:09:00,
2013-05-27 18:14:00,56.8,37.4,29.56,SE,138,0.0,3.0,46,0.00,,,0.00,WeatherTracker,2013-05-28 01:14:00,
2013-05-27 18:19:00,56.7,37.4,29.56,NNW,333,3.0,0.0,46,0.00,,,0.00,WeatherTracker,2013-05-28 01:19:00,
2013-05-27 18:24:00,56.5,37.4,29.56,SSW,212,0.0,0.0,47,0.00,,,0.00,WeatherTracker,2013-05-28 01:24:00,
2013-05-27 18:29:00,56.3,37.4,29.56,SE,129,0.0,3.0,47,0.00,,,0.00,WeatherTracker,2013-05-28 01:29:00,
2013-05-27 18:34:00,56.1,35.6,29.56,ESE,122,0.0,3.0,48,0.00,,,0.00,WeatherTracker,2013-05-28 01:34:00,
2013-05-27 18:39:00,55.9,37.4,29.56,SE,132,0.0,0.0,49,0.00,,,0.00,WeatherTracker,2013-05-28 01:39:00,
2013-05-27 18:44:00,55.9,37.4,29.56,SE,126,0.0,0.0,49,0.00,,,0.00,WeatherTracker,2013-05-28 01:44:00,
2013-05-27 18:49:00,55.9,37.4,29.56,WNW,301,3.0,0.0,50,0.00,,,0.00,WeatherTracker,2013-05-28 01:49:00,
2013-05-27 18:54:00,55.8,37.4,29.56,ESE,120,0.0,2.0,50,0.00,,,0.00,WeatherTracker,2013-05-28 01:54:00,
2013-05-27 18:59:00,55.8,37.4,29.56,SE,131,0.0,0.0,52,0.00,,,0.00,WeatherTracker,2013-05-28 01:59:00,
2013-05-27 19:04:00,55.6,39.2,29.56,ESE,111,2.0,0.0,54,0.00,,,0.00,WeatherTracker,2013-05-28 02:04:00,
2013-05-27 19:09:00,55.4,39.2,29.56,SSE,152,0.0,0.0,54,0.00,,,0.00,WeatherTracker,2013-05-28 02:09:00,
2013-05-27 19:14:00,55.0,39.2,29.56,SE,127,0.0,2.0,55,0.00,,,0.00,WeatherTracker,2013-05-28 02:14:00,
2013-05-27 19:19:00,55.0,41.0,29.56,SE,127,0.0,0.0,57,0.00,,,0.00,WeatherTracker,2013-05-28 02:19:00,
2013-05-27 19:24:00,55.0,41.0,29.56,SE,127,0.0,0.0,57,0.00,,,0.00,WeatherTracker,2013-05-28 02:24:00,
2013-05-27 19:29:00,55.2,42.8,29.56,SE,127,0.0,0.0,61,0.00,,,0.00,WeatherTracker,2013-05-28 02:29:00,
2013-05-27 19:34:00,55.2,42.8,29.56,SE,127,0.0,0.0,63,0.00,,,0.00,WeatherTracker,2013-05-28 02:34:00,
2013-05-27 19:39:00,55.4,42.8,29.56,SE,127,0.0,0.0,63,0.00,,,0.00,WeatherTracker,2013-05-28 02:39:00,
2013-05-27 19:44:00,55.4,42.8,29.56,SE,127,0.0,0.0,63,0.00,,,0.00,WeatherTracker,2013-05-28 02:44:00,
2013-05-27 19:49:00,55.2,42.8,29.56,SE,127,0.0,0.0,64,0.00,,,0.00,WeatherTracker,2013-05-28 02:49:00,
2013-05-27 19:54:00,55.2,44.6,29.56,SE,127,0.0,0.0,65,0.00,,,0.00,WeatherTracker,2013-05-28 02:54:00,
2013-05-27 19:59:00,55.0,44.6,29.56,SE,127,0.0,0.0,65,0.00,,,0.00,WeatherTracker,2013-05-28 02:59:00,
2013-05-27 20:04:00,55.0,44.6,29.56,SE,127,0.0,0.0,66,0.00,,,0.00,WeatherTracker,2013-05-28 03:04:00,
2013-05-27 20:09:00,54.9,44.6,29.56,SE,127,0.0,0.0,68,0.00,,,0.00,WeatherTracker,2013-05-28 03:09:00,
2013-05-27 20:14:00,54.9,44.6,29.56,SE,127,0.0,0.0,68,0.00,,,0.00,WeatherTracker,2013-05-28 03:14:00,
2013-05-27 20:19:00,54.7,44.6,29.56,SE,127,0.0,0.0,69,0.00,,,0.00,WeatherTracker,2013-05-28 03:19:00,
2013-05-27 20:24:00,54.5,44.6,29.56,SE,127,0.0,0.0,69,0.00,,,0.00,WeatherTracker,2013-05-28 03:24:00,
2013-05-27 20:29:00,54.5,44.6,29.56,SE,127,0.0,0.0,69,0.00,,,0.00,WeatherTracker,2013-05-28 03:29:00,
2013-05-27 20:34:00,54.5,46.4,29.56,SE,127,0.0,0.0,70,0.00,,,0.00,WeatherTracker,2013-05-28 03:34:00,
2013-05-27 20:39:00,54.5,46.4,29.56,SE,127,0.0,0.0,70,0.00,,,0.00,WeatherTracker,2013-05-28 03:39:00,
2013-05-27 20:44:00,54.5,46.4,29.56,SE,127,0.0,0.0,70,0.00,,,0.00,WeatherTracker,2013-05-28 03:44:00,
2013-05-27 20:49:00,54.5,46.4,29.56,SE,127,0.0,0.0,70,0.00,,,0.00,WeatherTracker,2013-05-28 03:49:00,
2013-05-27 20:54:00,54.5,46.4,29.56,SE,127,0.0,0.0,70,0.00,,,0.00,WeatherTracker,2013-05-28 03:54:00,
2013-05-27 20:59:00,54.5,46.4,29.56,SE,127,0.0,0.0,71,0.00,,,0.00,WeatherTracker,2013-05-28 03:59:00,
2013-05-27 21:01:00,54.5,46.4,29.56,SE,127,0.0,0.0,71,0.00,,,0.00,WeatherTracker,2013-05-28 04:01:00,
2013-05-27 21:02:00,54.5,46.4,29.56,SE,127,0.0,0.0,71,0.00,,,0.00,WeatherTracker,2013-05-28 04:02:00,
2013-05-27 21:07:00,54.3,44.6,29.56,SE,127,0.0,0.0,71,0.00,,,0.00,WeatherTracker,2013-05-28 04:07:00,
2013-05-27 21:12:00,54.3,44.6,29.56,SE,127,0.0,0.0,72,0.00,,,0.00,WeatherTracker,2013-05-28 04:12:00,
2013-05-27 21:17:00,54.3,44.6,29.56,SE,127,0.0,0.0,72,0.00,,,0.00,WeatherTracker,2013-05-28 04:17:00,
2013-05-27 21:22:00,54.3,44.6,29.56,SE,127,0.0,0.0,72,0.00,,,0.00,WeatherTracker,2013-05-28 04:22:00,
2013-05-27 21:27:00,54.3,44.6,29.56,SE,127,0.0,0.0,73,0.00,,,0.00,WeatherTracker,2013-05-28 04:27:00,
2013-05-27 21:32:00,54.3,44.6,29.56,SE,127,0.0,0.0,73,0.00,,,0.00,WeatherTracker,2013-05-28 04:32:00,
2013-05-27 21:37:00,54.3,44.6,29.56,SE,127,0.0,0.0,73,0.00,,,0.00,WeatherTracker,2013-05-28 04:37:00,
2013-05-27 21:42:00,54.3,44.6,29.56,SE,127,0.0,0.0,73,0.00,,,0.00,WeatherTracker,2013-05-28 04:42:00,
2013-05-27 21:48:00,54.1,44.6,29.56,SE,127,0.0,0.0,73,0.00,,,0.00,WeatherTracker,2013-05-28 04:48:00,
2013-05-27 21:53:00,54.1,44.6,29.56,SE,127,0.0,0.0,73,0.00,,,0.00,WeatherTracker,2013-05-28 04:53:00,
2013-05-27 21:58:00,54.1,44.6,29.56,SE,127,0.0,0.0,73,0.00,,,0.00,WeatherTracker,2013-05-28 04:58:00,
2013-05-27 22:03:00,54.1,44.6,29.56,SE,127,0.0,0.0,73,0.00,,,0.00,WeatherTracker,2013-05-28 05:03:00,
2013-05-27 22:08:00,54.1,44.6,29.56,SE,127,0.0,0.0,73,0.00,,,0.00,WeatherTracker,2013-05-28 05:08:00,
2013-05-27 22:13:00,54.1,44.6,29.56,SE,127,0.0,0.0,73,0.00,,,0.00,WeatherTracker,2013-05-28 05:13:00,
2013-05-27 22:18:00,54.1,46.4,29.56,SE,127,0.0,0.0,74,0.00,,,0.00,WeatherTracker,2013-05-28 05:18:00,
2013-05-27 22:23:00,54.1,46.4,29.56,SE,127,0.0,0.0,74,0.00,,,0.00,WeatherTracker,2013-05-28 05:23:00,
2013-05-27 22:28:00,54.1,46.4,29.56,SE,127,0.0,0.0,75,0.00,,,0.00,WeatherTracker,2013-05-28 05:28:00,
2013-05-27 22:33:00,54.1,46.4,29.56,SE,127,0.0,0.0,75,0.00,,,0.00,WeatherTracker,2013-05-28 05:33:00,
2013-05-27 22:38:00,54.0,46.4,29.56,SE,127,0.0,0.0,75,0.04,,,0.04,WeatherTracker,2013-05-28 05:38:00,
2013-05-27 22:43:00,54.0,46.4,29.56,SE,127,0.0,0.0,76,0.04,,,0.04,WeatherTracker,2013-05-28 05:43:00,
2013-05-27 22:48:00,54.0,46.4,29.56,SE,127,0.0,0.0,76,0.04,,,0.04,WeatherTracker,2013-05-28 05:48:00,
2013-05-27 22:53:00,54.0,46.4,29.56,SE,127,0.0,0.0,77,0.04,,,0.04,WeatherTracker,2013-05-28 05:53:00,
2013-05-27 22:58:00,53.8,46.4,29.56,SE,127,0.0,0.0,77,0.04,,,0.04,WeatherTracker,2013-05-28 05:58:00,
2013-05-27 23:03:00,54.0,46.4,29.56,SE,127,0.0,0.0,77,0.04,,,0.04,WeatherTracker,2013-05-28 06:03:00,
2013-05-27 23:08:00,54.0,46.4,29.56,SE,127,0.0,0.0,78,0.04,,,0.04,WeatherTracker,2013-05-28 06:08:00,
2013-05-27 23:13:00,54.0,46.4,29.56,SE,127,0.0,0.0,78,0.04,,,0.04,WeatherTracker,2013-05-28 06:13:00,
2013-05-27 23:18:00,54.0,46.4,29.56,SE,127,0.0,0.0,78,0.04,,,0.04,WeatherTracker,2013-05-28 06:18:00,
2013-05-27 23:23:00,54.0,46.4,29.56,SE,127,0.0,0.0,78,0.04,,,0.04,WeatherTracker,2013-05-28 06:23:00,
2013-05-27 23:28:00,54.0,46.4,29.56,SE,127,0.0,0.0,78,0.04,,,0.04,WeatherTracker,2013-05-28 06:28:00,
2013-05-27 23:33:00,54.0,46.4,29.56,SE,127,0.0,0.0,78,0.04,,,0.04,WeatherTracker,2013-05-28 06:33:00,
2013-05-27 23:38:00,54.0,46.4,29.56,SE,127,0.0,0.0,78,0.00,,,0.04,WeatherTracker,2013-05-28 06:38:00,
2013-05-27 23:43:00,54.0,46.4,29.56,SE,127,0.0,0.0,79,0.00,,,0.04,WeatherTracker,2013-05-28 06:43:00,
2013-05-27 23:48:00,54.1,46.4,29.56,SE,127,0.0,0.0,79,0.00,,,0.04,WeatherTracker,2013-05-28 06:48:00,
2013-05-27 23:53:00,54.1,46.4,29.56,SE,127,0.0,0.0,79,0.00,,,0.04,WeatherTracker,2013-05-28 06:53:00,
2013-05-27 23:58:00,54.1,46.4,29.56,SE,127,0.0,0.0,79,0.00,,,0.04,WeatherTracker,2013-05-28 06:58:00,